This is the latest recevied weather packets stored in our database for station/object WX4SGA. If no packets are shown the sender has not sent any weather packets the latest 10 day(s).
| Time | Temp. | Humidity | Pressure | Rain* | Wind** | Luminosity | Snow |
|---|---|---|---|---|---|---|---|
| 1788292730 | 32.78° C | 61% | 1017.3 hPa | 0 mm | - | 653 W/m² | - |
| 1788292423 | 32.78° C | 60% | 1017.3 hPa | 0 mm | - | 664 W/m² | - |
| 1788292118 | 32.22° C | 63% | 1017.6 hPa | 0 mm | - | 677 W/m² | - |
| 1788291813 | 32.22° C | 64% | 1017.6 hPa | 0 mm | - | 692 W/m² | - |
| 1788291510 | 32.22° C | 63% | 1017.6 hPa | 0 mm | - | 732 W/m² | - |
| 1788291207 | 32.22° C | 62% | 1017.6 hPa | 0 mm | - | 747 W/m² | - |
| 1788290902 | 32.22° C | 61% | 1017.6 hPa | 0 mm | - | 735 W/m² | - |
| 1788290598 | 32.22° C | 65% | 1017.6 hPa | 0 mm | - | 744 W/m² | - |
| 1788290294 | 32.78° C | 63% | 1017.6 hPa | 0 mm | - | 758 W/m² | - |
| 1788289989 | 32.22° C | 62% | 1018 hPa | 0 mm | - | 757 W/m² | - |
| 1788289686 | 32.22° C | 62% | 1018 hPa | 0 mm | - | 766 W/m² | - |
| 1788289385 | 32.22° C | 63% | 1018 hPa | 0 mm | - | 315 W/m² | - |
| 1788289084 | 32.22° C | 65% | 1018 hPa | 0 mm | - | 791 W/m² | - |
| 1788288783 | 32.22° C | 64% | 1018 hPa | 0 mm | - | 790 W/m² | - |
| 1788288502 | 32.78° C | 63% | 1018 hPa | 0 mm | - | 797 W/m² | - |
| 1788288173 | 31.67° C | 67% | 1018 hPa | 0 mm | - | 810 W/m² | - |
| 1788287869 | 32.22° C | 67% | 1018 hPa | 0 mm | - | 159 W/m² | - |
| 1788287569 | 32.22° C | 66% | 1018.3 hPa | 0 mm | - | 834 W/m² | - |
| 1788287265 | 32.22° C | 67% | 1018.3 hPa | 0 mm | - | 823 W/m² | - |
| 1788286964 | 32.22° C | 64% | 1018.3 hPa | 0 mm | - | 820 W/m² | - |
| 1788286659 | 31.67° C | 66% | 1018.3 hPa | 0 mm | - | 822 W/m² | - |
| 1788286354 | 31.67° C | 68% | 1018.3 hPa | 0 mm | - | 850 W/m² | - |
| 1788286053 | 31.67° C | 64% | 1018.3 hPa | 0 mm | - | 894 W/m² | - |
| 1788285753 | 32.22° C | 66% | 1018.6 hPa | 0 mm | - | 874 W/m² | - |
| 1788285452 | 31.67° C | 66% | 1018.6 hPa | 0 mm | - | 826 W/m² | - |
* Rain latest hour (hover to see other rain measurements)
** Current wind speed in m/s (hover to see current wind gust speed)